Date/Time (UTC),ProbHail,ProbWind,ProbTor,MESH,VIL Density,Flash Rate,Max Flash Density,LJA sigma-level,Max 0-2km AzShear,LLAZ 98th%,MLAZ 98th%,MUCAPE,MLCAPE,CAPE -10C to -30C,MLCIN,SRH 0-1km AGL,EBShear,MeanWind 0-1km AGL,Norm. Sat. Growth Rate,PWAT,WBZ,AvgBeamHgt,size
2019/05/20 16:20,2,47,20,0.19,1.7,10,0.16,0.0,41,36,5,2543,10,584,999,457,65.3,46.1,0,1.7,10.9,1.0,166
2019/05/20 16:22,3,50,20,0.3,1.7,12,0.16,0.0,41,36,6,2504,10,586,999,465,65.6,46.0,0,1.7,10.9,0.8,617
2019/05/20 16:24,3,50,20,0.3,1.7,12,0.16,0.0,41,36,6,2489,10,583,999,458,65.7,46.0,0,1.7,10.9,0.8,613
2019/05/20 16:26,3,50,13,0.3,1.5,12,0.16,0.0,28,8,7,2479,10,577,999,450,65.8,45.9,0,1.7,10.9,0.8,502
2019/05/20 16:28,3,62,15,0.19,1.3,21,0.19,0.0,24,8,8,2465,10,570,999,436,65.6,45.6,0,1.7,10.9,0.9,540
2019/05/20 16:30,3,62,16,0.19,1.3,21,0.21,0.0,24,8,8,2452,10,569,999,435,65.6,45.6,0,1.7,10.9,0.9,542
2019/05/20 16:32,3,62,25,0.19,1.3,21,0.21,0.1,27,15,7,2362,9,564,999,424,65.5,45.2,0,1.7,10.8,1.0,598
2019/05/20 16:34,3,55,25,0.24,1.3,21,0.21,0.0,27,16,7,2349,9,564,999,424,65.4,45.2,0,1.7,10.8,1.0,617
2019/05/20 16:36,3,58,21,0.24,1.3,19,0.21,1.5,37,23,6,2337,9,566,999,416,65.3,45.0,0,1.7,10.8,1.1,678
2019/05/20 16:38,3,54,21,0.24,1.2,19,0.21,0.0,37,23,6,2315,9,568,999,408,65.2,44.8,0,1.7,10.7,1.1,687
2019/05/20 16:40,3,55,21,0.23,1.2,19,0.21,0.8,37,23,7,2369,9,573,999,397,64.8,44.7,0,1.7,10.9,1.2,506
2019/05/20 16:42,3,55,21,0.23,1.1,19,0.21,0.0,37,21,6,2315,9,573,999,392,65.5,44.3,0,1.7,10.6,1.4,549
2019/05/20 16:44,3,42,2,0.23,1.0,13,0.21,0.4,7,6,6,2315,9,573,999,392,65.5,44.3,0,1.7,10.6,1.4,549
2019/05/20 16:46,6,58,2,0.35,1.5,21,0.22,1.2,7,6,6,2319,9,576,999,389,65.9,44.1,0,1.7,10.5,1.5,695
2019/05/20 16:48,7,41,2,0.35,1.5,21,0.24,0.0,7,6,7,2303,9,578,999,387,66.5,44.0,0,1.7,10.4,1.5,642
2019/05/20 16:50,8,60,23,0.35,1.6,22,0.36,0.4,40,22,7,2301,8,584,999,384,67.9,43.7,0,1.7,10.3,1.6,675
2019/05/20 16:52,11,62,23,0.43,1.6,22,0.36,0.0,40,22,7,2290,6,585,999,385,69.0,43.5,0,1.6,10.2,1.6,677
2019/05/20 16:54,12,68,23,0.43,1.7,22,0.36,1.2,40,22,7,2470,10,670,0,438,69.7,45.4,0,1.7,11.0,1.7,591
2019/05/20 16:56,13,65,23,0.43,1.7,26,0.36,1.1,40,22,6,2458,10,669,0,444,70.3,45.5,0,1.7,11.0,1.8,626
2019/05/20 16:58,11,65,2,0.4,2.0,26,0.36,0.0,8,5,7,2456,10,669,0,444,70.2,45.5,0,1.7,11.0,1.8,616
2019/05/20 17:00,11,65,2,0.38,2.0,26,0.4,0.1,7,5,6,2456,10,673,0,438,69.7,45.6,0,1.7,11.1,2.0,370
2019/05/20 17:02,9,72,2,0.38,2.0,26,0.4,0.0,8,5,6,2435,10,669,0,436,69.0,45.6,0,1.7,11.1,2.2,542
2019/05/20 17:04,7,58,3,0.32,1.4,22,0.4,0.0,8,5,8,2418,10,666,0,447,68.7,45.7,0,1.7,11.1,2.2,711
2019/05/20 17:06,5,58,3,0.29,1.5,22,0.4,0.0,8,5,6,2421,11,668,0,444,68.2,45.7,0,1.7,11.1,2.4,729
2019/05/20 17:08,5,55,3,0.28,1.5,19,0.4,0.0,9,5,5,2417,10,667,0,448,67.9,45.8,0,1.7,11.1,2.4,754
2019/05/20 17:10,5,55,2,0.25,1.5,23,0.4,3.8,9,5,4,2430,13,674,0,462,67.9,45.8,0,1.7,11.1,2.8,747
2019/05/20 17:12,4,46,1,0.22,1.2,23,0.4,0.0,9,4,4,2430,13,674,0,462,67.9,45.8,0,1.7,11.1,2.8,747
2019/05/20 17:14,4,32,1,0.17,1.2,23,0.4,0.0,7,3,4,2427,12,674,0,462,67.8,45.9,0,1.7,11.1,2.8,695
2019/05/20 17:16,4,52,4,0.24,1.2,23,0.4,0.0,7,3,13,2436,12,677,0,464,66.5,46.0,0,1.7,11.1,3.0,630
2019/05/20 17:18,3,47,4,0.24,1.4,11,0.4,0.7,7,3,14,2436,12,677,0,466,65.9,46.1,0,1.7,11.1,3.1,606
2019/05/20 17:20,3,63,55,0.24,1.4,11,0.4,0.0,27,16,13,2397,10,676,0,465,64.8,46.1,0,1.7,11.1,3.2,570
2019/05/20 17:22,4,62,55,0.27,1.4,11,0.4,0.0,27,16,13,2513,20,680,0,476,66.6,46.0,0,1.7,11.1,3.4,324
2019/05/20 17:24,4,55,55,0.27,1.4,11,0.4,0.0,27,16,3,2519,15,680,0,476,66.0,46.0,0,1.7,11.1,3.6,279
2019/05/20 17:26,4,55,44,0.27,1.4,11,0.4,1.8,22,9,10,2471,8,678,0,471,64.8,46.1,0,1.7,11.1,3.7,269
2019/05/20 17:28,5,58,36,0.38,1.4,11,0.4,0.0,22,9,11,2478,8,677,0,475,64.8,46.1,0,1.7,11.1,3.8,258
2019/05/20 17:30,5,58,47,0.38,1.4,11,0.4,0.0,25,24,11,2479,7,687,0,480,64.7,46.0,0,1.7,11.1,4.0,135
2019/05/20 17:32,5,58,47,0.38,1.4,11,0.4,0.0,25,24,10,2459,6,689,0,478,64.5,46.0,0,1.7,11.1,4.1,132
2019/05/20 17:34,4,55,47,0.33,1.5,12,0.4,0.9,25,24,11,2525,12,681,0,499,65.0,46.0,0,1.7,11.1,4.2,285
2019/05/20 17:36,5,58,47,0.33,1.6,13,0.4,0.2,24,22,10,2440,9,681,0,492,65.1,46.0,0,1.7,11.1,4.2,261
2019/05/20 17:38,6,65,47,0.33,1.6,19,0.4,1.7,24,22,11,2363,6,684,0,486,64.9,45.8,0,1.7,11.0,4.3,221
2019/05/20 17:40,5,62,55,0.25,1.6,19,0.4,0.0,24,22,15,2355,7,679,0,491,65.0,45.8,0,1.7,11.0,4.3,226
2019/05/20 17:42,5,63,55,0.25,1.3,19,0.4,0.0,23,21,17,2343,7,676,0,494,65.4,45.6,0,1.7,10.9,4.3,260
2019/05/20 17:44,5,63,18,0.24,1.3,19,0.4,1.4,12,6,8,2316,9,664,0,503,67.4,45.4,0,1.7,10.7,4.2,260
2019/05/20 17:46,3,63,20,0.24,1.3,16,0.4,0.0,8,6,6,2294,8,648,0,507,69.0,45.2,0,1.7,10.5,4.1,260
2019/05/20 17:48,7,58,7,0.33,1.5,16,0.4,0.4,8,6,4,2271,9,637,0,516,69.8,44.9,0,1.7,10.4,4.1,251
2019/05/20 17:50,10,57,2,0.44,1.5,16,0.4,0.5,8,6,3,2303,7,629,0,519,68.7,44.9,0,1.7,10.2,4.0,645
2019/05/20 17:52,13,49,1,0.44,1.5,23,0.4,1.8,6,4,4,2278,7,627,0,527,69.3,44.5,0,1.7,10.2,3.9,606
2019/05/20 17:54,13,58,9,0.44,1.9,23,0.41,0.0,13,7,8,2264,7,626,0,532,69.4,44.3,0,1.7,10.1,3.9,609
2019/05/20 17:56,6,65,9,0.43,1.9,23,0.41,0.0,13,7,7,2398,10,623,0,613,69.4,50.4,0,1.7,12.0,3.8,621
2019/05/20 17:58,6,72,9,0.43,1.9,23,0.41,1.0,13,7,6,2377,10,615,0,609,69.1,50.6,0,1.7,12.0,3.8,670
2019/05/20 18:00,6,60,2,0.43,1.5,20,0.41,0.0,9,6,6,2378,10,609,0,610,68.4,50.7,0,1.7,12.0,3.7,720
2019/05/20 18:02,5,63,2,0.36,1.5,20,0.41,0.4,9,6,3,2384,9,603,0,611,67.5,50.7,0,1.7,11.9,3.7,699
2019/05/20 18:04,4,58,2,0.36,1.5,20,0.41,0.0,7,5,4,2391,9,597,0,609,66.8,50.8,0,1.7,11.8,3.7,658
2019/05/20 18:06,3,40,1,0.35,1.3,14,0.41,0.3,7,5,4,2394,9,592,0,608,66.5,50.8,0,1.7,11.7,3.6,723
2019/05/20 18:08,3,36,1,0.36,1.5,14,0.41,0.0,7,4,2,2408,8,596,0,592,66.6,51.1,0,1.7,11.6,3.9,192
2019/05/20 18:10,5,41,1,0.42,1.8,17,0.71,2.0,5,3,5,2421,8,594,0,589,66.2,51.2,0,1.7,11.5,4.0,189
2019/05/20 18:12,6,36,0,0.46,1.8,17,0.71,0.0,2,2,5,2431,8,592,0,586,65.9,51.2,0,1.7,11.4,4.0,127
2019/05/20 18:14,6,38,0,0.46,1.8,17,0.71,0.8,2,2,2,2442,8,587,0,583,65.1,51.4,0,1.7,11.2,4.0,121
2019/05/20 18:16,9,36,0,0.46,1.5,17,0.71,0.0,2,2,4,2438,8,583,0,580,64.6,51.4,0,1.6,11.1,4.1,107
2019/05/20 18:18,6,10,0,0.42,1.5,12,0.71,0.0,2,2,2,2416,8,574,0,578,64.0,51.4,0,1.6,11.0,4.1,91
2019/05/20 18:20,7,11,0,0.43,1.5,12,0.71,0.0,2,2,1,2340,8,564,0,575,63.4,51.1,0,1.6,10.8,4.2,82
2019/05/20 18:22,6,10,0,0.43,1.3,6,0.71,0.0,2,2,2,2279,7,557,0,575,63.1,50.8,0,1.6,10.7,4.2,107
2019/05/20 18:24,5,10,0,0.43,1.3,6,0.71,0.0,2,2,3,2184,5,548,0,572,62.7,50.5,0,1.7,10.5,4.3,108
2019/05/20 18:26,4,9,0,0.39,1.3,6,0.71,0.0,2,2,2,2053,3,539,0,568,62.6,49.8,0,1.7,10.3,4.3,135
2019/05/20 18:28,3,7,0,0.23,1.3,4,0.71,0.0,2,1,2,1957,1,533,0,568,62.7,49.3,0,1.7,10.2,4.4,110
2019/05/20 18:30,2,7,0,0.2,1.3,4,0.71,0.0,1,1,2,1812,0,522,0,565,62.8,48.4,0,1.7,10.0,4.5,45
